Location: Unspecified
(41.5000°N, 0.0000°E)
Time: 05:53:46
(UTC+00:00)

deb Explorer IX - Pass Details

Date: 26 June 2019
Orbit: 539 x 1112 km, 38.8° (Epoch: 17 July)

Event Time Altitude Azimuth Distance (km) Brightness Sun altitude
Rises 15:23:32 0° 274° (W) 3,841 ? 44.7°
Reaches altitude 10° 15:26:14 10° 271° (W) 2,927 ? 44.2°
Maximum altitude 15:33:27 65° 192° (SSW) 1,210 ? 42.8°
Drops below altitude 10° 15:40:39 10° 112° (ESE) 2,922 ? 41.5°
Sets 15:43:20 0° 110° (ESE) 3,833 ? 41.0°
